| time (UTC) | temp C | wind direction | speed KPH | gust KPH | rain 1hr cm | rain 24hr cm | rain mn cm | humidity % | barometer mb |
| 20260507091613 | 1 | 240 | 0.0 | 0.0 | 0.00 | 0.00 | 0.00 | 99 | 1012.5 |
| 20260507091108 | 1 | 238 | 0.0 | 0.0 | 0.00 | 0.00 | 0.00 | 99 | 1012.5 |
| 20260507090604 | 1 | 236 | 0.0 | 0.0 | 0.00 | 0.00 | 0.00 | 99 | 1012.5 |
| 20260507085558 | 1 | 244 | 0.0 | 0.0 | 0.00 | 0.00 | 0.00 | 99 | 1012.5 |
| 20260507085055 | 1 | 244 | 0.0 | 0.0 | 0.00 | 0.00 | 0.00 | 99 | 1012.5 |
| 20260507084552 | 1 | 235 | 0.0 | 0.0 | 0.00 | 0.00 | 0.00 | 99 | 1012.9 |
| 20260507084049 | 1 | 238 | 0.0 | 0.0 | 0.00 | 0.00 | 0.00 | 99 | 1012.5 |
| 20260507083545 | 1 | 237 | 0.0 | 0.0 | 0.00 | 0.00 | 0.00 | 99 | 1012.5 |
| 20260507083042 | 2 | 231 | 0.0 | 0.0 | 0.00 | 0.00 | 0.00 | 99 | 1012.1 |
| 20260507082538 | 2 | 240 | 0.0 | 0.0 | 0.00 | 0.00 | 0.00 | 99 | 1012.5 |
| 20260507082035 | 2 | 235 | 0.0 | 0.0 | 0.00 | 0.00 | 0.00 | 99 | 1012.5 |
| 20260507081531 | 2 | 231 | 0.0 | 0.0 | 0.00 | 0.00 | 0.00 | 99 | 1012.1 |
| 20260507081028 | 2 | 230 | 0.0 | 0.0 | 0.00 | 0.00 | 0.00 | 99 | 1012.5 |
| 20260507080524 | 2 | 234 | 0.0 | 0.0 | 0.00 | 0.00 | 0.00 | 99 | 1012.9 |
| 20260507080021 | 2 | 236 | 0.0 | 0.0 | 0.00 | 0.00 | 0.00 | 99 | 1012.9 |
| 20260507075516 | 2 | 243 | 0.0 | 0.0 | 0.00 | 0.00 | 0.00 | 99 | 1012.9 |
| 20260507075013 | 3 | 243 | 0.0 | 0.0 | 0.00 | 0.00 | 0.00 | 99 | 1012.9 |
| 20260507074509 | 2 | 236 | 0.0 | 0.0 | 0.00 | 0.00 | 0.00 | 99 | 1012.9 |
| 20260507074008 | 3 | 237 | 0.0 | 0.0 | 0.00 | 0.00 | 0.00 | 99 | 1012.9 |
| 20260507073503 | 3 | 239 | 0.0 | 0.0 | 0.00 | 0.00 | 0.00 | 99 | 1012.5 |
| 20260507073000 | 3 | 236 | 0.0 | 0.0 | 0.00 | 0.00 | 0.00 | 99 | 1012.5 |
| 20260507072458 | 3 | 239 | 0.0 | 0.0 | 0.00 | 0.00 | 0.00 | 99 | 1012.5 |
| 20260507071955 | 3 | 234 | 0.0 | 0.0 | 0.00 | 0.00 | 0.00 | 99 | 1012.5 |
| 20260507071452 | 4 | 234 | 0.0 | 0.0 | 0.00 | 0.00 | 0.00 | 99 | 1012.9 |
| 20260507070948 | 4 | 244 | 0.0 | 0.0 | 0.00 | 0.00 | 0.00 | 99 | 1012.9 |
| 20260507070446 | 5 | 239 | 0.0 | 0.0 | 0.00 | 0.00 | 0.00 | 99 | 1012.5 |
| 20260507065942 | 5 | 239 | 0.0 | 0.0 | 0.00 | 0.00 | 0.00 | 99 | 1012.9 |
| 20260507065439 | 5 | 239 | 0.0 | 0.0 | 0.00 | 0.00 | 0.00 | 99 | 1012.9 |
| 20260507064936 | 5 | 234 | 0.0 | 0.0 | 0.00 | 0.00 | 0.00 | 99 | 1012.5 |
| 20260507064435 | 5 | 236 | 0.0 | 0.0 | 0.00 | 0.00 | 0.00 | 99 | 1012.9 |
| 20260507063932 | 5 | 239 | 0.0 | 0.0 | 0.00 | 0.00 | 0.00 | 99 | 1012.5 |
| 20260507063429 | 5 | 239 | 0.0 | 0.0 | 0.00 | 0.00 | 0.00 | 98 | 1012.5 |
| 20260507062926 | 5 | 246 | 0.0 | 0.0 | 0.00 | 0.00 | 0.00 | 98 | 1012.5 |
| 20260507062423 | 5 | 232 | 0.0 | 1.6 | 0.00 | 0.00 | 0.00 | 98 | 1012.5 |
| 20260507061921 | 5 | 231 | 0.0 | 0.0 | 0.00 | 0.00 | 0.00 | 98 | 1012.9 |
| 20260507061418 | 5 | 237 | 0.0 | 0.0 | 0.00 | 0.00 | 0.00 | 98 | 1012.9 |
| 20260507060917 | 5 | 238 | 0.0 | 0.0 | 0.00 | 0.00 | 0.00 | 97 | 1012.9 |
| 20260507060413 | 5 | 242 | 0.0 | 0.0 | 0.00 | 0.00 | 0.00 | 97 | 1012.9 |
| 20260507055910 | 5 | 236 | 0.0 | 0.0 | 0.00 | 0.00 | 0.00 | 97 | 1012.9 |
| 20260507055405 | 5 | 243 | 0.0 | 0.0 | 0.00 | 0.00 | 0.00 | 97 | 1012.9 |
| 20260507054902 | 5 | 242 | 0.0 | 0.0 | 0.00 | 0.00 | 0.00 | 97 | 1012.9 |
| 20260507054358 | 5 | 242 | 0.0 | 0.0 | 0.00 | 0.00 | 0.00 | 97 | 1012.9 |
| 20260507053855 | 5 | 242 | 0.0 | 0.0 | 0.00 | 0.00 | 0.00 | 96 | 1012.5 |
| 20260507053353 | 5 | 248 | 0.0 | 0.0 | 0.00 | 0.00 | 0.00 | 96 | 1012.9 |
| 20260507052852 | 5 | 242 | 0.0 | 0.0 | 0.00 | 0.00 | 0.00 | 96 | 1012.9 |
| 20260507052348 | 5 | 239 | 0.0 | 0.0 | 0.00 | 0.00 | 0.00 | 96 | 1013.2 |
| 20260507051846 | 5 | 242 | 0.0 | 0.0 | 0.00 | 0.00 | 0.00 | 95 | 1013.2 |
| 20260507051343 | 5 | 246 | 0.0 | 0.0 | 0.00 | 0.00 | 0.00 | 96 | 1013.2 |
| 20260507050840 | 5 | 245 | 0.0 | 0.0 | 0.00 | 0.00 | 0.00 | 95 | 1013.6 |
| 20260507050336 | 6 | 263 | 1.6 | 1.6 | 0.00 | 0.00 | 0.00 | 96 | 1013.2 |
| 20260507045833 | 5 | 243 | 0.0 | 0.0 | 0.00 | 0.00 | 0.00 | 95 | 1013.2 |
| 20260507045330 | 5 | 243 | 0.0 | 0.0 | 0.00 | 0.00 | 0.00 | 95 | 1012.9 |
| 20260507044827 | 5 | 244 | 0.0 | 0.0 | 0.00 | 0.00 | 0.00 | 95 | 1012.9 |
| 20260507044324 | 5 | 245 | 0.0 | 0.0 | 0.00 | 0.00 | 0.00 | 95 | 1012.9 |
| 20260507043819 | 6 | 245 | 0.0 | 0.0 | 0.00 | 0.00 | 0.00 | 94 | 1013.2 |
| 20260507043316 | 6 | 239 | 0.0 | 0.0 | 0.00 | 0.00 | 0.00 | 93 | 1013.2 |
| 20260507042812 | 6 | 243 | 0.0 | 0.0 | 0.00 | 0.00 | 0.00 | 92 | 1013.2 |
| 20260507042308 | 6 | 241 | 0.0 | 0.0 | 0.00 | 0.00 | 0.00 | 91 | 1012.9 |
| 20260507041805 | 6 | 239 | 0.0 | 0.0 | 0.00 | 0.00 | 0.00 | 90 | 1012.9 |
| 20260507041302 | 6 | 239 | 0.0 | 0.0 | 0.00 | 0.00 | 0.00 | 90 | 1012.9 |
| 20260507040759 | 6 | 234 | 0.0 | 0.0 | 0.00 | 0.00 | 0.00 | 89 | 1012.9 |
| 20260507040255 | 6 | 249 | 1.6 | 1.6 | 0.00 | 0.00 | 0.00 | 87 | 1013.2 |
| 20260507035751 | 6 | 295 | 1.6 | 3.2 | 0.00 | 2.29 | 2.29 | 88 | 1013.2 |
| 20260507035246 | 6 | 296 | 1.6 | 3.2 | 0.00 | 2.29 | 2.29 | 89 | 1012.5 |
| 20260507034744 | 6 | 278 | 1.6 | 3.2 | 0.00 | 2.29 | 2.29 | 89 | 1012.9 |
| 20260507034241 | 6 | 247 | 0.0 | 0.0 | 0.00 | 2.29 | 2.29 | 89 | 1012.9 |
| 20260507033740 | 6 | 245 | 1.6 | 1.6 | 0.00 | 2.29 | 2.29 | 89 | 1012.5 |
| 20260507033237 | 6 | 244 | 1.6 | 3.2 | 0.00 | 2.29 | 2.29 | 89 | 1012.5 |
| 20260507032734 | 6 | 241 | 0.0 | 1.6 | 0.00 | 2.29 | 2.29 | 89 | 1012.5 |
| 20260507032230 | 6 | 252 | 0.0 | 1.6 | 0.00 | 2.29 | 2.29 | 89 | 1012.5 |
| 20260507031726 | 6 | 287 | 1.6 | 1.6 | 0.00 | 2.29 | 2.29 | 89 | 1012.1 |
| 20260507031223 | 6 | 251 | 0.0 | 0.0 | 0.00 | 2.29 | 2.29 | 89 | 1012.1 |
| 20260507030720 | 6 | 252 | 0.0 | 1.6 | 0.00 | 2.29 | 2.29 | 88 | 1012.5 |
| 20260507030218 | 6 | 248 | 0.0 | 0.0 | 0.00 | 2.29 | 2.29 | 88 | 1012.5 |
| 20260507025715 | 6 | 246 | 1.6 | 1.6 | 0.00 | 2.29 | 2.29 | 87 | 1012.1 |
| 20260507025212 | 6 | 257 | 1.6 | 1.6 | 0.00 | 2.29 | 2.29 | 87 | 1012.1 |
| 20260507024710 | 6 | 279 | 0.0 | 1.6 | 0.00 | 2.29 | 2.29 | 88 | 1012.1 |
| 20260507024207 | 6 | 247 | 0.0 | 1.6 | 0.00 | 2.29 | 2.29 | 88 | 1012.5 |
| 20260507023702 | 7 | 259 | 0.0 | 1.6 | 0.00 | 2.29 | 2.29 | 89 | 1012.5 |
| 20260507023159 | 7 | 275 | 0.0 | 1.6 | 0.00 | 2.29 | 2.29 | 88 | 1012.5 |
| 20260507022656 | 7 | 242 | 0.0 | 0.0 | 0.00 | 2.29 | 2.29 | 88 | 1012.1 |
| 20260507022152 | 7 | 247 | 1.6 | 1.6 | 0.00 | 2.29 | 2.29 | 87 | 1012.5 |
| 20260507021649 | 7 | 256 | 0.0 | 1.6 | 0.00 | 2.29 | 2.29 | 87 | 1012.1 |
| 20260507021144 | 7 | 243 | 0.0 | 0.0 | 0.00 | 2.29 | 2.29 | 88 | 1012.1 |
| 20260507020643 | 7 | 235 | 0.0 | 0.0 | 0.00 | 2.29 | 2.29 | 89 | 1012.1 |
| 20260507020138 | 7 | 265 | 0.0 | 1.6 | 0.00 | 2.29 | 2.29 | 89 | 1012.1 |
| 20260507015637 | 7 | 245 | 0.0 | 0.0 | 0.00 | 2.29 | 2.29 | 89 | 1012.5 |
| 20260507015134 | 7 | 239 | 0.0 | 0.0 | 0.00 | 2.29 | 2.29 | 88 | 1012.5 |
| 20260507014630 | 7 | 254 | 0.0 | 1.6 | 0.00 | 2.29 | 2.29 | 88 | 1012.1 |
| 20260507014126 | 7 | 238 | 1.6 | 1.6 | 0.00 | 2.29 | 2.29 | 88 | 1012.5 |
| 20260507013623 | 7 | 234 | 0.0 | 0.0 | 0.00 | 2.29 | 2.29 | 87 | 1012.5 |
| 20260507013120 | 7 | 242 | 0.0 | 1.6 | 0.00 | 2.29 | 2.29 | 85 | 1012.1 |
| 20260507012618 | 7 | 218 | 1.6 | 3.2 | 0.00 | 2.29 | 2.29 | 85 | 1012.5 |
| 20260507012113 | 7 | 248 | 4.8 | 4.8 | 0.00 | 2.29 | 2.29 | 84 | 1012.5 |
| 20260507011612 | 7 | 309 | 3.2 | 3.2 | 0.00 | 2.29 | 2.29 | 85 | 1012.5 |
| 20260507011107 | 7 | 254 | 1.6 | 1.6 | 0.00 | 2.29 | 2.29 | 88 | 1012.5 |
| 20260507010602 | 7 | 246 | 3.2 | 4.8 | 0.00 | 2.29 | 2.29 | 89 | 1012.5 |
| 20260507010058 | 8 | 259 | 1.6 | 1.6 | 0.00 | 2.29 | 2.29 | 90 | 1012.1 |
| 20260507005556 | 8 | 277 | 1.6 | 3.2 | 0.00 | 2.29 | 2.29 | 90 | 1012.1 |
| 20260507005052 | 8 | 236 | 0.0 | 1.6 | 0.00 | 2.29 | 2.29 | 91 | 1012.5 |
| 20260507004549 | 8 | 247 | 0.0 | 0.0 | 0.00 | 2.29 | 2.29 | 91 | 1011.8 |
| 20260507004047 | 8 | 244 | 0.0 | 0.0 | 0.00 | 2.29 | 2.29 | 91 | 1011.8 |
| 20260507003542 | 8 | 325 | 3.2 | 3.2 | 0.00 | 2.29 | 2.29 | 92 | 1011.8 |
| 20260507003038 | 8 | 351 | 4.8 | 4.8 | 0.00 | 2.29 | 2.29 | 93 | 1011.8 |
| 20260507002535 | 8 | 342 | 6.4 | 8.0 | 0.00 | 2.29 | 2.29 | 96 | 1011.8 |
| 20260507002030 | 8 | 262 | 1.6 | 3.2 | 0.00 | 2.29 | 2.29 | 98 | 1011.8 |
| 20260507001527 | 8 | 267 | 0.0 | 1.6 | 0.00 | 2.29 | 2.29 | 99 | 1011.4 |
| 20260507001025 | 8 | 241 | 1.6 | 1.6 | 0.00 | 2.29 | 2.29 | 99 | 1011.1 |
| 20260507000520 | 8 | 247 | 0.0 | 0.0 | 0.00 | 2.29 | 2.29 | 99 | 1011.1 |
| 20260507000016 | 8 | 261 | 1.6 | 1.6 | 0.00 | 2.29 | 2.29 | 98 | 1011.1 |
| 20260506235514 | 8 | 231 | 0.0 | 0.0 | 0.00 | 2.29 | 2.29 | 98 | 1011.1 |
| 20260506235009 | 8 | 240 | 0.0 | 0.0 | 0.00 | 2.29 | 2.29 | 98 | 1010.7 |
| 20260506234507 | 8 | 231 | 0.0 | 0.0 | 0.00 | 2.29 | 2.29 | 98 | 1011.1 |
| 20260506234004 | 8 | 229 | 0.0 | 0.0 | 0.00 | 2.29 | 2.29 | 97 | 1010.7 |
| 20260506233501 | 8 | 235 | 0.0 | 0.0 | 0.00 | 2.29 | 2.29 | 97 | 1011.1 |
| 20260506232957 | 8 | 238 | 1.6 | 3.2 | 0.00 | 2.29 | 2.29 | 97 | 1010.7 |
| 20260506232454 | 8 | 231 | 0.0 | 0.0 | 0.00 | 2.29 | 2.29 | 97 | 1010.7 |
| 20260506231950 | 8 | 230 | 0.0 | 1.6 | 0.00 | 2.29 | 2.29 | 97 | 1010.4 |
| 20260506231447 | 8 | 234 | 0.0 | 1.6 | 0.00 | 2.29 | 2.29 | 97 | 1010.7 |
| 20260506230944 | 8 | 220 | 0.0 | 1.6 | 0.00 | 2.29 | 2.29 | 97 | 1010.7 |
| 20260506230440 | 8 | 233 | 0.0 | 0.0 | 0.00 | 2.29 | 2.29 | 97 | 1010.7 |
| 20260506225937 | 8 | 240 | 1.6 | 1.6 | 0.00 | 2.29 | 2.29 | 96 | 1010.7 |
| 20260506225435 | 8 | 228 | 1.6 | 1.6 | 0.00 | 2.29 | 2.29 | 96 | 1011.1 |
| 20260506224931 | 8 | 232 | 0.0 | 1.6 | 0.00 | 2.29 | 2.29 | 96 | 1010.7 |
| 20260506224428 | 8 | 226 | 0.0 | 1.6 | 0.00 | 2.29 | 2.29 | 95 | 1010.7 |
| 20260506223925 | 8 | 229 | 0.0 | 1.6 | 0.00 | 2.29 | 2.29 | 95 | 1010.7 |
| 20260506223420 | 8 | 240 | 0.0 | 0.0 | 0.00 | 2.29 | 2.29 | 95 | 1010.4 |
| 20260506222918 | 8 | 239 | 0.0 | 0.0 | 0.00 | 2.29 | 2.29 | 95 | 1010.4 |
| 20260506222414 | 8 | 235 | 0.0 | 0.0 | 0.00 | 2.29 | 2.29 | 95 | 1010.4 |
| 20260506221911 | 8 | 220 | 1.6 | 1.6 | 0.00 | 2.29 | 2.29 | 94 | 1010.4 |
| 20260506221408 | 8 | 230 | 0.0 | 1.6 | 0.00 | 2.29 | 2.29 | 94 | 1010.4 |
| 20260506220906 | 8 | 241 | 0.0 | 0.0 | 0.00 | 2.29 | 2.29 | 94 | 1010.4 |
| 20260506220401 | 9 | 245 | 0.0 | 1.6 | 0.00 | 2.29 | 2.29 | 95 | 1010.1 |
| 20260506215858 | 8 | 248 | 0.0 | 1.6 | 0.00 | 2.29 | 2.29 | 96 | 1010.4 |
| 20260506215354 | 8 | 249 | 0.0 | 0.0 | 0.00 | 2.29 | 2.29 | 96 | 1010.4 |
| 20260506214850 | 8 | 256 | 0.0 | 1.6 | 0.00 | 2.29 | 2.29 | 97 | 1010.1 |
| 20260506214347 | 8 | 224 | 1.6 | 1.6 | 0.00 | 2.29 | 2.29 | 97 | 1010.1 |
| 20260506213845 | 8 | 242 | 0.0 | 0.0 | 0.00 | 2.29 | 2.29 | 99 | 1010.4 |
| 20260506213342 | 7 | 235 | 0.0 | 1.6 | 0.00 | 2.29 | 2.29 | 99 | 1010.1 |
| 20260506212839 | 7 | 242 | 0.0 | 0.0 | 0.00 | 2.29 | 2.29 | 99 | 1010.4 |
| 20260506212336 | 8 | 228 | 0.0 | 0.0 | 0.00 | 2.29 | 2.29 | 99 | 1010.4 |
| 20260506211830 | 7 | 247 | 0.0 | 1.6 | 0.00 | 2.29 | 2.29 | 99 | 1010.7 |
| 20260506211326 | 8 | 266 | 1.6 | 1.6 | 0.00 | 2.29 | 2.29 | 99 | 1010.4 |
| 20260506210824 | 8 | 249 | 0.0 | 0.0 | 0.00 | 2.29 | 2.29 | 99 | 1010.4 |
| 20260506210321 | 8 | 316 | 3.2 | 3.2 | 0.00 | 2.29 | 2.29 | 98 | 1010.1 |
| 20260506205818 | 8 | 283 | 4.8 | 4.8 | 0.00 | 2.29 | 2.29 | 98 | 1010.1 |
| 20260506205314 | 8 | 265 | 1.6 | 1.6 | 0.00 | 2.29 | 2.29 | 98 | 1010.4 |
| 20260506204810 | 8 | 245 | 1.6 | 3.2 | 0.00 | 2.29 | 2.29 | 99 | 1010.4 |
| 20260506204308 | 8 | 270 | 1.6 | 1.6 | 0.00 | 2.29 | 2.29 | 99 | 1010.4 |
| 20260506203806 | 8 | 243 | 1.6 | 1.6 | 0.00 | 2.29 | 2.29 | 99 | 1010.4 |
| 20260506203303 | 8 | 349 | 3.2 | 3.2 | 0.00 | 2.29 | 2.29 | 99 | 1010.4 |
| 20260506202800 | 8 | 242 | 1.6 | 1.6 | 0.00 | 2.29 | 2.29 | 99 | 1010.1 |
| 20260506202257 | 7 | 264 | 3.2 | 3.2 | 0.00 | 2.29 | 2.29 | 98 | 1010.1 |
| 20260506201753 | 8 | 336 | 3.2 | 3.2 | 0.00 | 2.29 | 2.29 | 98 | 1010.1 |
| 20260506201250 | 8 | 250 | 1.6 | 3.2 | 0.00 | 2.29 | 2.29 | 98 | 1010.1 |
| 20260506200747 | 8 | 272 | 4.8 | 4.8 | 0.00 | 2.29 | 2.29 | 98 | 1010.1 |
| 20260506200243 | 8 | 294 | 1.6 | 1.6 | 0.00 | 2.29 | 2.29 | 98 | 1010.1 |
| 20260506195740 | 8 | 255 | 1.6 | 1.6 | 0.00 | 2.29 | 2.29 | 97 | 1010.1 |
| 20260506195236 | 8 | 287 | 1.6 | 1.6 | 0.00 | 2.29 | 2.29 | 97 | 1010.1 |
| 20260506194734 | 8 | 249 | 0.0 | 1.6 | 0.00 | 2.29 | 2.29 | 96 | 1010.1 |
| 20260506194230 | 8 | 275 | 3.2 | 3.2 | 0.00 | 2.29 | 2.29 | 95 | 1009.7 |
| 20260506193728 | 8 | 243 | 1.6 | 1.6 | 0.00 | 2.29 | 2.29 | 95 | 1010.1 |
| 20260506193225 | 8 | 265 | 1.6 | 1.6 | 0.00 | 2.29 | 2.29 | 94 | 1010.1 |
| 20260506192721 | 8 | 250 | 0.0 | 1.6 | 0.00 | 2.29 | 2.29 | 93 | 1009.7 |
| 20260506192218 | 8 | 244 | 1.6 | 3.2 | 0.00 | 2.29 | 2.29 | 92 | 1010.1 |
| 20260506191715 | 8 | 278 | 0.0 | 1.6 | 0.00 | 2.29 | 2.29 | 92 | 1009.7 |
| 20260506191211 | 8 | 278 | 1.6 | 3.2 | 0.00 | 2.29 | 2.29 | 92 | 1009.7 |
| 20260506190708 | 8 | 272 | 4.8 | 8.0 | 0.00 | 2.29 | 2.29 | 92 | 1009.7 |
| 20260506190204 | 8 | 253 | 1.6 | 1.6 | 0.00 | 2.29 | 2.29 | 92 | 1009.7 |
| 20260506185702 | 8 | 262 | 1.6 | 3.2 | 0.00 | 2.29 | 2.29 | 93 | 1009.7 |
| 20260506185158 | 8 | 322 | 3.2 | 3.2 | 0.00 | 2.29 | 2.29 | 93 | 1009.7 |
| 20260506184650 | 8 | 348 | 8.0 | 11.3 | 0.00 | 2.29 | 2.29 | 94 | 1009.7 |
| 20260506184147 | 8 | 236 | 3.2 | 4.8 | 0.00 | 2.29 | 2.29 | 95 | 1009.4 |
| 20260506183644 | 8 | 271 | 3.2 | 3.2 | 0.00 | 2.29 | 2.29 | 94 | 1009.7 |
| 20260506183140 | 8 | 353 | 6.4 | 8.0 | 0.00 | 2.29 | 2.29 | 94 | 1009.4 |
| 20260506182637 | 8 | 287 | 1.6 | 1.6 | 0.00 | 2.29 | 2.29 | 95 | 1009.4 |
| 20260506182134 | 8 | 244 | 0.0 | 0.0 | 0.00 | 2.29 | 2.29 | 95 | 1009.7 |
| 20260506181632 | 8 | 326 | 3.2 | 3.2 | 0.00 | 2.29 | 2.29 | 95 | 1009.4 |
| 20260506181129 | 8 | 292 | 3.2 | 3.2 | 0.00 | 2.29 | 2.29 | 95 | 1009.4 |
| 20260506180626 | 8 | 356 | 8.0 | 11.3 | 0.00 | 2.29 | 2.29 | 95 | 1009.7 |
| 20260506180122 | 8 | 328 | 4.8 | 4.8 | 0.00 | 2.29 | 2.29 | 94 | 1009.4 |
| 20260506175619 | 8 | 277 | 1.6 | 3.2 | 0.00 | 2.29 | 2.29 | 95 | 1009.4 |
| 20260506175114 | 8 | 320 | 4.8 | 4.8 | 0.00 | 2.29 | 2.29 | 95 | 1009.4 |
| 20260506174614 | 8 | 278 | 3.2 | 3.2 | 0.00 | 2.29 | 2.29 | 95 | 1009.4 |
| 20260506174110 | 8 | 323 | 6.4 | 8.0 | 0.00 | 2.29 | 2.29 | 95 | 1009.4 |
| 20260506173608 | 8 | 334 | 1.6 | 3.2 | 0.00 | 2.29 | 2.29 | 96 | 1009.4 |
| 20260506173104 | 8 | 248 | 1.6 | 1.6 | 0.00 | 2.29 | 2.29 | 96 | 1009.4 |
| 20260506172602 | 8 | 282 | 1.6 | 1.6 | 0.00 | 2.29 | 2.29 | 96 | 1009.0 |
| 20260506172057 | 8 | 311 | 1.6 | 1.6 | 0.00 | 2.29 | 2.29 | 97 | 1008.6 |
| 20260506171555 | 8 | 279 | 1.6 | 3.2 | 0.00 | 2.29 | 2.29 | 99 | 1009.0 |
| 20260506171053 | 8 | 238 | 0.0 | 1.6 | 0.00 | 2.29 | 2.29 | 99 | 1009.4 |
| 20260506170550 | 7 | 261 | 1.6 | 1.6 | 0.00 | 2.29 | 2.29 | 99 | 1009.0 |
| 20260506170047 | 8 | 285 | 0.0 | 1.6 | 0.00 | 2.29 | 2.29 | 99 | 1008.6 |
| 20260506165546 | 8 | 294 | 3.2 | 3.2 | 0.00 | 2.29 | 2.29 | 99 | 1008.6 |
| 20260506165041 | 7 | 244 | 3.2 | 4.8 | 0.00 | 2.29 | 2.29 | 99 | 1008.6 |
| 20260506164538 | 7 | 284 | 3.2 | 3.2 | 0.00 | 2.29 | 2.29 | 99 | 1008.6 |
| 20260506164036 | 7 | 310 | 1.6 | 1.6 | 0.00 | 2.29 | 2.29 | 99 | 1008.6 |
| 20260506163532 | 7 | 246 | 3.2 | 3.2 | 0.00 | 2.29 | 2.29 | 99 | 1008.6 |
| 20260506163027 | 7 | 336 | 4.8 | 4.8 | 0.00 | 2.29 | 2.29 | 99 | 1008.6 |
| 20260506162524 | 8 | 285 | 4.8 | 4.8 | 0.00 | 2.29 | 2.29 | 99 | 1008.6 |
| 20260506162021 | 8 | 276 | 0.0 | 1.6 | 0.00 | 2.29 | 2.29 | 99 | 1008.6 |
| 20260506161518 | 8 | 246 | 0.0 | 0.0 | 0.00 | 2.29 | 2.29 | 99 | 1008.3 |
| 20260506161010 | 7 | 316 | 4.8 | 4.8 | 0.00 | 2.29 | 2.29 | 99 | 1008.3 |
| 20260506160508 | 7 | 334 | 6.4 | 8.0 | 0.18 | 2.29 | 2.29 | 99 | 1008.3 |
| 20260506160005 | 7 | 267 | 0.0 | 1.6 | 0.18 | 2.29 | 2.29 | 99 | 1008.3 |
| 20260506155502 | 7 | 252 | 3.2 | 3.2 | 0.00 | 2.26 | 2.26 | 99 | 1008.6 |
| 20260506153634 | 7 | 252 | 0.0 | 1.6 | 0.13 | 2.26 | 2.26 | 99 | 1008.6 |
| 20260506153131 | 7 | 242 | 1.6 | 1.6 | 0.13 | 2.26 | 2.26 | 99 | 1008.6 |
| 20260506152628 | 7 | 257 | 1.6 | 3.2 | 0.18 | 2.24 | 2.24 | 99 | 1008.6 |
| 20260506152126 | 7 | 266 | 0.0 | 0.0 | 0.30 | 2.24 | 2.24 | 99 | 1009.0 |
| 20260506151624 | 6 | 305 | 1.6 | 3.2 | 0.30 | 2.21 | 2.21 | 99 | 1008.6 |
| 20260506151121 | 6 | 275 | 0.0 | 0.0 | 0.30 | 2.18 | 2.18 | 99 | 1009.0 |
| 20260506150618 | 7 | 245 | 1.6 | 1.6 | 0.13 | 2.16 | 2.16 | 99 | 1009.0 |
| 20260506150115 | 6 | 252 | 1.6 | 1.6 | 0.18 | 2.13 | 2.13 | 99 | 1008.6 |
| 20260506145612 | 6 | 252 | 1.6 | 1.6 | 0.18 | 2.13 | 2.13 | 99 | 1008.3 |
| 20260506145108 | 6 | 268 | 1.6 | 3.2 | 0.18 | 2.11 | 2.11 | 99 | 1008.6 |
| 20260506144605 | 6 | 322 | 4.8 | 4.8 | 0.18 | 2.11 | 2.11 | 99 | 1008.6 |
| 20260506144102 | 6 | 268 | 1.6 | 3.2 | 0.00 | 2.08 | 2.08 | 99 | 1008.3 |
| 20260506143600 | 6 | 255 | 1.6 | 1.6 | 0.13 | 2.08 | 2.08 | 99 | 1008.3 |
| 20260506143058 | 6 | 244 | 1.6 | 1.6 | 0.13 | 2.08 | 2.08 | 99 | 1008.3 |
| 20260506142556 | 6 | 259 | 1.6 | 3.2 | 0.00 | 2.06 | 2.06 | 99 | 1007.9 |
| 20260506142054 | 6 | 354 | 3.2 | 4.8 | 0.00 | 2.06 | 2.06 | 99 | 1007.9 |
| 20260506141551 | 6 | 244 | 0.0 | 0.0 | 0.18 | 2.06 | 2.06 | 99 | 1007.9 |
| 20260506141049 | 6 | 258 | 0.0 | 0.0 | 0.18 | 2.06 | 2.06 | 99 | 1007.9 |
| 20260506140547 | 6 | 271 | 1.6 | 1.6 | 0.00 | 2.03 | 2.03 | 99 | 1007.6 |
| 20260506140044 | 6 | 245 | 1.6 | 3.2 | 0.13 | 2.03 | 2.03 | 99 | 1007.9 |
| 20260506135541 | 6 | 266 | 1.6 | 1.6 | 0.13 | 2.03 | 2.03 | 99 | 1007.9 |
| 20260506135037 | 6 | 265 | 0.0 | 0.0 | 0.00 | 2.01 | 2.01 | 99 | 1007.9 |
| 20260506134533 | 6 | 244 | 0.0 | 0.0 | 0.00 | 2.01 | 2.01 | 99 | 1007.9 |
| 20260506134029 | 6 | 279 | 1.6 | 1.6 | 0.00 | 2.01 | 2.01 | 99 | 1007.9 |
| 20260506133527 | 6 | 248 | 0.0 | 0.0 | 0.18 | 2.01 | 2.01 | 99 | 1007.9 |
| 20260506133024 | 7 | 311 | 4.8 | 4.8 | 0.30 | 2.01 | 2.01 | 99 | 1008.3 |
| 20260506132521 | 6 | 268 | 3.2 | 3.2 | 0.13 | 1.98 | 1.98 | 99 | 1008.3 |
| 20260506132018 | 6 | 243 | 1.6 | 1.6 | 0.00 | 1.96 | 1.96 | 99 | 1007.9 |
| 20260506131515 | 7 | 251 | 1.6 | 3.2 | 0.00 | 1.96 | 1.96 | 99 | 1007.9 |
| 20260506131011 | 7 | 247 | 1.6 | 1.6 | 0.00 | 1.96 | 1.96 | 99 | 1007.6 |
| 20260506130508 | 7 | 251 | 3.2 | 3.2 | 0.00 | 1.96 | 1.96 | 99 | 1007.6 |
| 20260506130006 | 6 | 297 | 4.8 | 4.8 | 0.00 | 1.96 | 1.96 | 99 | 1007.6 |
| 20260506125504 | 7 | 244 | 1.6 | 1.6 | 0.18 | 1.96 | 1.96 | 99 | 1007.6 |
| 20260506125001 | 7 | 257 | 0.0 | 0.0 | 0.18 | 1.96 | 1.96 | 99 | 1007.6 |
| 20260506124459 | 7 | 300 | 1.6 | 3.2 | 0.13 | 1.93 | 1.93 | 99 | 1007.6 |
| 20260506123957 | 7 | 297 | 0.0 | 1.6 | 0.30 | 1.93 | 1.93 | 99 | 1007.6 |
| 20260506123454 | 7 | 314 | 4.8 | 4.8 | 0.18 | 1.91 | 1.91 | 99 | 1007.9 |
| 20260506122952 | 7 | 329 | 3.2 | 4.8 | 0.13 | 1.88 | 1.88 | 99 | 1007.9 |
| 20260506122449 | 7 | 251 | 0.0 | 0.0 | 0.30 | 1.85 | 1.85 | 99 | 1007.9 |
| 20260506121947 | 7 | 345 | 4.8 | 4.8 | 0.48 | 1.85 | 1.85 | 99 | 1007.9 |
| 20260506121444 | 7 | 302 | 3.2 | 3.2 | 0.36 | 1.80 | 1.80 | 99 | 1007.9 |
| 20260506120940 | 7 | 238 | 0.0 | 0.0 | 0.30 | 1.78 | 1.78 | 99 | 1007.9 |
| 20260506120438 | 7 | 272 | 1.6 | 3.2 | 0.30 | 1.75 | 1.75 | 99 | 1007.9 |
| 20260506115935 | 7 | 225 | 3.2 | 3.2 | 0.30 | 1.73 | 1.73 | 99 | 1007.9 |
| 20260506115433 | 7 | 237 | 1.6 | 1.6 | 0.30 | 1.70 | 1.70 | 99 | 1007.9 |
| 20260506114931 | 7 | 318 | 3.2 | 3.2 | 0.30 | 1.68 | 1.68 | 99 | 1007.6 |
| 20260506114428 | 7 | 243 | 0.0 | 1.6 | 0.13 | 1.65 | 1.65 | 99 | 1007.3 |
| 20260506113927 | 7 | 331 | 3.2 | 3.2 | 0.30 | 1.63 | 1.63 | 99 | 1007.3 |
| 20260506113424 | 8 | 332 | 4.8 | 8.0 | 0.30 | 1.63 | 1.63 | 99 | 1006.9 |
| 20260506112920 | 8 | 332 | 1.6 | 3.2 | 0.18 | 1.57 | 1.57 | 99 | 1007.3 |
| 20260506112419 | 8 | 249 | 0.0 | 0.0 | 0.48 | 1.57 | 1.57 | 99 | 1006.9 |
| 20260506111915 | 8 | 295 | 0.0 | 0.0 | 0.43 | 1.55 | 1.55 | 99 | 1007.3 |
| 20260506111414 | 8 | 248 | 0.0 | 0.0 | 0.30 | 1.50 | 1.50 | 99 | 1007.3 |
| 20260506110910 | 8 | 321 | 4.8 | 4.8 | 0.18 | 1.47 | 1.47 | 99 | 1007.3 |
| 20260506110408 | 8 | 251 | 3.2 | 3.2 | 0.18 | 1.45 | 1.45 | 99 | 1006.6 |
| 20260506105904 | 8 | 261 | 3.2 | 3.2 | 0.48 | 1.45 | 1.45 | 99 | 1006.6 |
| 20260506105401 | 8 | 246 | 0.0 | 1.6 | 0.61 | 1.42 | 1.42 | 99 | 1006.6 |
| 20260506104858 | 8 | 267 | 0.0 | 1.6 | 0.61 | 1.37 | 1.37 | 99 | 1006.6 |
| 20260506104356 | 8 | 344 | 8.0 | 9.7 | 0.43 | 1.32 | 1.32 | 99 | 1006.9 |
| 20260506103853 | 8 | 253 | 1.6 | 1.6 | 0.43 | 1.27 | 1.27 | 99 | 1006.9 |
| 20260506103351 | 8 | 307 | 1.6 | 3.2 | 0.66 | 1.24 | 1.24 | 99 | 1006.6 |
| 20260506102848 | 8 | 245 | 0.0 | 0.0 | 0.66 | 1.19 | 1.19 | 99 | 1006.6 |
| 20260506102346 | 8 | 259 | 0.0 | 0.0 | 0.43 | 1.14 | 1.14 | 99 | 1006.6 |
| 20260506101843 | 8 | 295 | 3.2 | 3.2 | 0.43 | 1.09 | 1.09 | 99 | 1006.6 |
| 20260506101339 | 8 | 247 | 0.0 | 1.6 | 0.48 | 1.07 | 1.07 | 99 | 1006.6 |
| 20260506100837 | 8 | 263 | 0.0 | 1.6 | 0.30 | 1.02 | 1.02 | 99 | 1006.6 |
| 20260506100335 | 8 | 252 | 0.0 | 1.6 | 0.30 | 0.99 | 0.99 | 99 | 1006.6 |
| 20260506095833 | 8 | 250 | 1.6 | 1.6 | 0.30 | 0.97 | 0.97 | 99 | 1006.6 |
| 20260506095330 | 8 | 244 | 0.0 | 1.6 | 0.13 | 0.94 | 0.94 | 99 | 1006.6 |
| 20260506094827 | 8 | 241 | 0.0 | 0.0 | 0.18 | 0.91 | 0.91 | 99 | 1006.6 |
| 20260506094326 | 8 | 247 | 1.6 | 1.6 | 0.30 | 0.91 | 0.91 | 99 | 1006.6 |
| 20260506093823 | 8 | 259 | 1.6 | 1.6 | 0.48 | 0.89 | 0.89 | 99 | 1006.1 |
| 20260506093320 | 8 | 18 | 1.6 | 1.6 | 0.36 | 0.86 | 0.86 | 99 | 1006.1 |
| 20260506092818 | 8 | 252 | 1.6 | 1.6 | 0.30 | 0.81 | 0.81 | 99 | 1006.6 |
| 20260506092316 | 8 | 267 | 1.6 | 1.6 | 0.61 | 0.81 | 0.81 | 99 | 1006.6 |